Northeast Philadelphia, PA

8:51 AM EST on November 19, 2019 (GMT -0500)
Northeast Philadelphia

Weather History for KPNE - September, 2019

Change the Weather History Date:

Sunday, September 15, 2019

  Actual Average Record
Temperature  
Mean Temperature 77 °F -  
Max Temperature 86 °F 75 °F 87 °F (1998)
Min Temperature 69 °F 57 °F 48 °F (2001)
Cooling Degree Days 12    
Growing Degree Days 27 (Base 50)    
Moisture  
Dew Point 64 °F    
Average Humidity 71    
Maximum Humidity 91    
Minimum Humidity 32    
Precipitation  
Precipitation 0.05 in - - ()
Sea Level Pressure  
Sea Level Pressure 30.15 in    
Wind  
Wind Speed 2 mph ()    
Max Wind Speed 9 mph    
Max Gust Speed -    
Visibility 9.1 miles    
Events Rain    
Averages and records for this station are not official NWS values.
T = Trace of Precipitation, MM = Missing Value Source: Averaged Metar Reports

Daily Weather History Graph

Daily Weather History Graph

Search for Another Location

Airport or City:

Astronomy

Sep. 15, 2019 Rise Set
Actual Time 6:40 AM EDT 7:09 PM EDT
Civil Twilight 6:13 AM EDT 7:36 PM EDT
Nautical Twilight 5:41 AM EDT 8:08 PM EDT
Astronomical Twilight 5:08 AM EDT 8:41 PM EDT
Moon 8:15 PM EDT (9/15) 7:48 AM EDT (9/15)
Length of Visible Light 13h 22m
Length of Day
12h 28m
Full, 98% of the Moon is Illuminated
Sep 15
Full
Sep 21
Last Quarter
Sep 28
New
Oct 5
First Quarter
Oct 13
Full

Hourly Weather History & Observations

Time (EDT) Temp. Heat Index Dew Point Humidity Pressure Visibility Wind Dir Wind Speed Gust Speed Precip Events Conditions
12:54 AM 73.9 °F - 69.1 °F 85% 30.17 in 10.0 mi Calm Calm - N/A   Overcast
1:31 AM 73.9 °F - 69.1 °F 85% 30.18 in 5.0 mi Calm Calm - 0.05 in Rain Light Rain
1:43 AM 73.0 °F - 69.1 °F 87% 30.18 in 8.0 mi Calm Calm - 0.05 in   Overcast
1:54 AM 73.0 °F - 69.1 °F 87% 30.18 in 6.0 mi Calm Calm - 0.05 in Rain Light Rain
2:03 AM 73.9 °F - 70.0 °F 87% 30.18 in 10.0 mi Calm Calm - 0.00 in   Overcast
2:20 AM 73.0 °F - 69.1 °F 87% 30.17 in 10.0 mi Calm Calm - 0.00 in   Overcast
2:30 AM 73.0 °F - 69.1 °F 87% 30.17 in 9.0 mi Calm Calm - 0.00 in   Overcast
2:54 AM 73.0 °F - 69.1 °F 87% 30.17 in 9.0 mi Calm Calm - 0.00 in   Overcast
3:34 AM 73.0 °F - 69.1 °F 87% 30.16 in 8.0 mi Calm Calm - N/A   Overcast
3:54 AM 73.0 °F - 69.1 °F 87% 30.16 in 7.0 mi Calm Calm - N/A   Overcast
4:29 AM 73.0 °F - 69.1 °F 87% 30.17 in 1.8 mi Calm Calm - N/A   Overcast
4:38 AM 72.0 °F - 69.1 °F 91% 30.17 in 3.0 mi Calm Calm - N/A   Overcast
4:54 AM 72.0 °F - 69.1 °F 91% 30.16 in 9.0 mi Calm Calm - N/A   Overcast
5:29 AM 73.0 °F - 69.1 °F 87% 30.17 in 10.0 mi Calm Calm - N/A   Overcast
5:54 AM 72.0 °F - 69.1 °F 91% 30.17 in 10.0 mi Calm Calm - N/A   Overcast
6:21 AM 72.0 °F - 68.0 °F 87% 30.17 in 10.0 mi Calm Calm - N/A   Mostly Cloudy
6:45 AM 72.0 °F - 68.0 °F 87% 30.17 in 10.0 mi NNW 3.5 mph - N/A   Overcast
6:54 AM 72.0 °F - 68.0 °F 87% 30.17 in 10.0 mi NW 3.5 mph - N/A   Overcast
7:54 AM 72.0 °F - 66.9 °F 84% 30.17 in 10.0 mi North 5.8 mph - N/A   Clear
8:14 AM 73.0 °F - 66.9 °F 81% 30.18 in 10.0 mi North 8.1 mph - N/A   Mostly Cloudy
8:54 AM 73.0 °F - 66.0 °F 79% 30.19 in 10.0 mi North 9.2 mph - N/A   Overcast
9:20 AM 75.0 °F - 66.0 °F 73% 30.19 in 10.0 mi North 9.2 mph - N/A   Scattered Clouds
9:54 AM 75.9 °F - 64.9 °F 69% 30.19 in 10.0 mi NNE 8.1 mph - N/A   Clear
10:28 AM 75.9 °F - 64.0 °F 67% 30.19 in 10.0 mi North 8.1 mph - N/A   Mostly Cloudy
10:35 AM 77.0 °F - 64.0 °F 64% 30.19 in 10.0 mi NNE 6.9 mph - N/A   Scattered Clouds
10:54 AM 78.1 °F - 63.0 °F 60% 30.19 in 10.0 mi NNW 6.9 mph - N/A   Clear
11:54 AM 81.0 °F 81.9 °F 62.1 °F 52% 30.18 in 10.0 mi Variable 6.9 mph - N/A   Partly Cloudy
12:54 PM 82.0 °F 82.4 °F 60.1 °F 47% 30.16 in 10.0 mi Variable 3.5 mph - N/A   Clear
1:54 PM 84.0 °F 83.5 °F 57.9 °F 41% 30.14 in 10.0 mi NNW 6.9 mph - N/A   Clear
2:54 PM 84.0 °F 83.0 °F 55.9 °F 38% 30.11 in 10.0 mi Calm Calm - N/A   Clear
3:54 PM 84.9 °F - 52.0 °F 32% 30.10 in 10.0 mi NW 9.2 mph - N/A   Clear
4:54 PM 84.9 °F 83.3 °F 54.0 °F 34% 30.09 in 10.0 mi WNW 6.9 mph - N/A   Clear
5:54 PM 82.9 °F - 51.1 °F 33% 30.11 in 10.0 mi West 6.9 mph - N/A   Clear
6:54 PM 80.1 °F - 50.0 °F 35% 30.09 in 10.0 mi WNW 5.8 mph - N/A   Clear
7:54 PM 78.1 °F - 52.0 °F 40% 30.10 in 10.0 mi NW 4.6 mph - N/A   Clear
8:54 PM 71.1 °F - 57.0 °F 61% 30.10 in 10.0 mi Calm Calm - N/A   Clear
9:54 PM 70.0 °F - 57.9 °F 65% 30.09 in 10.0 mi Calm Calm - N/A   Clear
10:54 PM 71.1 °F - 55.9 °F 59% 30.10 in 10.0 mi NW 4.6 mph - N/A   Clear
11:54 PM 69.1 °F - 57.0 °F 65% 30.10 in 10.0 mi Calm Calm - N/A   Clear